Location: Bonningues
(50.7927°N, 2.0150°E)
Time: 06:20:48
(UTC+00:00)

Daily predictions for brighter satellites

Satellite Brightness Start Highest point End
(mag) Time Altitude Azimuth Time Altitude Azimuth Time Altitude Azimuth
Cosmos 2366 rocket 4.1 19:50:43 10° S 19:56:59 86° W 20:03:13 10° N
MOS 1 Rocket 4.3 19:51:59 10° N 19:57:24 64° WNW 20:02:43 10° SSW
Lacrosse 5 2.9 19:54:26 10° WNW 19:59:17 43° N 20:04:08 10° E
ERS-1 Rocket 4.4 19:57:12 10° ESE 20:01:04 23° ENE 20:04:55 10° N
Cosmos 2369 4.0 19:56:10 10° NNW 20:01:52 59° NE 20:07:31 10° SE
Cosmos 1862 3.5 20:00:20 10° S 20:04:17 55° E 20:08:18 10° NNE
Sich 1 3.6 20:01:09 10° SSE 20:05:17 39° E 20:09:26 10° NNE
Meteor 2-6 Rocket 4.3 20:00:35 10° NNW 20:06:06 84° WSW 20:11:43 10° S
Cosmos 1818 3.6 20:01:00 10° NW 20:06:31 87° NE 20:11:59 10° SE
SJ-6B 4.2 20:02:52 10° S 20:06:45 42° W 20:10:35 10° NNW
BREEZE-M DEB (TANK) 2.1 20:03:48 10° WSW 20:07:33 56° S 20:09:31 10° E
IRIDIUM 106 4.4 20:04:05 10° S 20:09:14 66° E 20:14:26 10° N
Cosmos 2082 Rocket 3.2 20:05:33 10° SSE 20:10:03 25° ESE 20:14:34 10° NE
Cosmos 2278 4.2 20:05:32 10° NNW 20:11:06 49° NE 20:16:37 10° SE
Cosmos 2123 Rocket 4.5 20:05:41 10° N 20:11:37 45° ENE 20:17:34 10° SE
Cosmos 1500 Rocket 4.0 20:11:11 10° SSW 20:15:27 66° W 20:19:48 10° N
Spot 2 Rocket 3.9 20:11:55 10° SE 20:16:48 48° ENE 20:21:42 10° N
Cosmos 2322 Rocket 4.0 20:14:21 10° NNW 20:18:36 21° NE 20:22:50 10° E
Meteor 1-4 Rocket 3.2 20:16:12 10° N 20:19:28 35° ENE 20:22:26 11° SE
Resurs 1-3 4.1 20:16:07 10° S 20:20:27 60° WSW 20:24:49 10° NNW
CZ-2C R/B 3.0 20:18:15 10° N 20:23:24 67° WNW 20:28:33 10° SSW
Terra 3.4 20:21:19 10° ESE 20:24:57 22° ENE 20:28:36 10° N
USA 234 3.3 20:19:00 10° ESE 20:25:33 87° NNE 20:32:08 10° WNW
Cosmos 407 Rocket 3.8 20:20:36 10° S 20:25:40 47° ESE 20:30:44 10° NE
Cosmos 1666 Rocket 3.9 20:22:47 10° SSE 20:26:51 43° E 20:30:58 10° NNE
Cosmos 1238 Rocket 4.2 20:28:02 12° ESE 20:28:52 13° E 20:30:14 10° ENE
Meteor 1-27 Rocket 3.9 20:24:15 10° N 20:30:11 82° ENE 20:36:08 10° SSE
MetOp-B 4.2 20:26:23 10° SSE 20:31:45 80° ENE 20:37:08 10° NNW
Cosmos 2360 Rocket 4.3 20:28:49 10° N 20:32:31 17° NNE 20:36:13 10° ENE
BREEZE-M DEB (TANK) 4.2 20:32:29 10° W 20:36:03 17° WSW 20:38:15 10° SSW
ERBS 3.0 20:33:41 10° WSW 20:36:58 54° NNW 20:40:14 10° NE
Cosmos 1805 Rocket 3.8 20:34:08 10° SSW 20:38:34 77° WNW 20:43:03 10° N
SPOT 5 3.6 20:35:54 14° SE 20:39:06 33° ENE 20:43:01 10° N
Cosmos 1980 Rocket 2.3 20:36:39 10° NNW 20:42:22 70° ENE 20:47:05 15° SE
SPOT 1/Viking Rocket 3.7 20:39:53 12° SSE 20:44:38 66° ENE 20:49:50 10° N
SL-4 R/B 2.6 20:44:12 10° SSW 20:47:40 30° SSE 20:50:56 10° E
Genesis I 3.2 20:44:07 10° NW 20:48:00 73° NE 20:50:44 19° SE
BREEZE-M DEB (TANK) 2.4 20:45:44 10° WSW 20:48:24 65° SSE 20:55:06 10° E
Cosmos 405 Rocket 4.1 20:49:22 18° ESE 20:50:39 21° E 20:53:30 10° NE
ATLAS 5 CENTAUR R/B 3.6 20:45:39 10° WNW 20:50:49 35° WSW 20:56:42 10° S
Cosmos 1140 Rocket 3.6 20:46:09 10° S 20:51:17 59° ESE 20:56:28 10° NNE
Cosmos 389 Rocket 4.3 20:50:47 10° NNW 20:53:45 28° W 20:56:44 10° SSW
Cosmos 1023 Rocket 4.5 20:50:35 10° S 20:55:48 66° ESE 21:01:03 10° NNE
Cosmos 1812 4.2 20:53:19 10° NNW 20:56:50 35° W 21:00:20 10° SSW
USA 32 4.2 20:53:02 13° SSE 20:57:39 54° E 21:02:45 10° NNE
Cosmos 1697 Rocket 3.2 20:52:32 10° NW 20:58:02 56° WSW 21:03:04 12° S
Cosmos 1633 Rocket 3.0 20:55:41 10° S 21:00:06 77° E 21:04:32 10° NNE
Cosmos 1833 Rocket 2.6 20:54:44 10° SSW 21:00:22 86° ESE 21:06:02 10° NNE
Okean 1-7 4.0 21:02:28 10° N 21:06:24 32° ENE 21:08:30 21° ESE
Cosmos 1867 3.8 21:01:32 10° SSW 21:06:40 45° ESE 21:11:51 10° NE
CENTAUR R/B 3.6 21:04:45 19° SE 21:07:08 23° ESE 21:12:18 10° ENE
Cosmos 1707 Rocket 4.5 21:04:15 10° NNW 21:08:25 45° W 21:12:32 10° SSW
Resurs 01 Rocket 3.3 21:06:45 10° SSW 21:10:38 30° W 21:14:34 10° NNW
Landsat 7 4.2 21:08:59 13° S 21:13:13 61° WSW 21:17:57 10° NNW
FALCON 9 DEB 3.7 21:10:12 10° SSW 21:13:24 34° SE 21:15:22 19° E
Cosmos 1515 4.5 21:13:17 10° N 21:16:53 38° ENE 21:18:23 26° ESE
deb Kosmos-1763 3.9 21:14:15 12° SSW 21:17:34 72° ESE 21:21:13 10° NNE
Cosmos 44 4.4 21:15:01 10° NNW 21:19:29 36° NE 21:23:09 15° E
Cosmos 192 4.4 21:14:53 10° NNW 21:19:49 77° WSW 21:22:57 22° SSE
ATLAS 5 CENTAUR R/B 2.8 21:17:56 10° NNW 21:20:08 32° NE 21:23:25 14° E
Cosmos 676 Rocket 4.0 21:14:54 10° S 21:20:10 66° ESE 21:25:29 10° NNE
IGS 5A 4.3 21:17:35 13° S 21:21:03 45° W 21:25:04 10° NNW
Meteor 1-25 Rocket 4.2 21:17:53 14° S 21:22:35 68° E 21:28:10 10° NNE
Cosmos 1470 Rocket 3.5 21:19:30 18° S 21:22:49 75° E 21:27:13 10° NNE
Cosmos 1934 Rocket 4.2 21:18:33 10° SSW 21:24:54 75° W 21:31:19 10° N
Aureole 1 Rocket 4.4 21:19:10 10° SSW 21:26:05 82° ESE 21:34:28 10° NNE
GP-B 3.5 21:22:24 10° N 21:26:48 62° W 21:30:41 13° SSW
USA 267 3.3 21:25:17 10° ENE 21:31:53 90° NW 21:38:27 10° WSW
NOSS 3-2 (A) 3.5 21:27:08 10° SSW 21:32:39 52° ESE 21:39:00 10° NE
Cosmos 921 Rocket 3.0 21:28:33 10° NNW 21:32:48 77° WSW 21:34:51 29° S
Cosmos 1862 Rocket 4.3 21:30:39 10° NNW 21:34:59 49° W 21:38:11 17° SSW
NOSS 3-2 (C) 3.9 21:35:51 23° SSE 21:38:43 37° ESE 21:44:37 10° NE
Cosmos 841 Rocket 4.2 21:34:21 10° NNW 21:39:20 43° ENE 21:42:00 25° ESE
ERS-1 Rocket 3.2 21:36:08 21° S 21:39:26 65° WSW 21:44:28 10° NNW
SAR-Lupe-2 3.4 21:36:39 10° NNE 21:40:15 87° ESE 21:41:56 30° SSW
OPS 6432 4.3 21:36:29 10° SW 21:40:28 86° SE 21:43:37 10° NE
Cosmos 540 Rocket 4.2 21:35:51 10° NNW 21:40:48 42° ENE 21:43:22 25° ESE
SL-16 R/B 2.4 21:35:35 10° NNW 21:41:15 64° ENE 21:44:17 28° SE
Lacrosse 5 1.9 21:37:38 10° WNW 21:42:45 83° NNE 21:45:31 27° ESE
Cosmos 468 Rocket 4.0 21:37:44 10° NNW 21:43:05 86° ENE 21:45:45 30° SSE
Cosmos 1741 Rocket 4.3 21:48:23 31° SSE 21:50:25 47° ESE 21:55:28 10° NE
Cosmos 1570 Rocket 4.4 21:45:28 10° NNW 21:50:42 54° ENE 21:53:10 29° ESE
Cosmos 2219 Rocket 4.1 21:47:29 10° NNW 21:51:50 22° NE 21:56:11 10° E
Cosmos 1954 Rocket 4.2 21:48:13 10° SSW 21:53:32 73° WNW 21:58:53 10° NNE
Cosmos 2082 Rocket 2.6 21:48:00 10° SW 21:53:40 67° WNW 21:59:21 10° NNE
Cosmos 1184 Rocket 4.4 21:53:55 14° SW 21:56:25 33° WNW 21:59:28 10° N
Terra 2.1 22:00:02 29° S 22:02:19 61° WSW 22:07:04 10° NNW
Aureole 2 4.4 22:03:02 58° S 22:03:37 74° ESE 22:07:34 10° NNE
Cosmos 2322 Rocket 2.2 21:57:54 10° NNW 22:03:38 75° ENE 22:06:13 34° SE
Cosmos 1933 Rocket 3.9 22:01:23 22° SSW 22:04:05 62° WNW 22:08:30 10° N
Okean 1 4.1 22:01:35 10° NNW 22:05:28 46° W 22:07:07 29° SSW
Cosmos 1238 Rocket 3.7 22:06:53 22° WSW 22:08:09 31° WNW 22:10:51 10° N
Cosmos 2100 Rocket 3.9 22:05:35 31° S 22:08:38 69° E 22:14:45 10° NNE
Cosmos 1602 4.3 22:06:47 27° SW 22:08:42 55° WNW 22:12:35 10° N
USA 234 4.0 22:06:06 26° S 22:09:02 38° SW 22:15:04 10° WNW
Cosmos 1437 Rocket 3.0 22:06:07 10° NNW 22:09:53 57° W 22:10:50 42° SSW
Meteor 1-11 Rocket 4.4 22:09:09 32° SE 22:10:44 38° E 22:15:59 10° NNE
Cosmos 1242 Rocket 4.1 22:08:50 10° NNE 22:11:47 23° ENE 22:12:07 23° ENE
ERBS 4.4 22:10:50 10° WNW 22:13:44 27° N 22:16:37 10° ENE
Cosmos 1869 Rocket 3.5 22:13:01 47° SSE 22:14:12 72° E 22:18:40 10° NNE
SPOT 5 4.0 22:15:08 20° SW 22:17:14 31° W 22:21:08 10° NNW
Cosmos 2360 Rocket 2.6 22:12:12 10° NNW 22:17:49 57° NE 22:20:20 32° ESE
COSMOS 2428 4.3 22:13:37 10° NNW 22:18:30 27° NE 22:22:37 13° E
MTI 3.8 22:15:42 10° NNE 22:18:29 65° NE 22:18:29 65° NE
JB-3 4.3 22:15:34 10° NNE 22:19:34 81° WNW 22:20:44 45° SSW
ATLAS 3B R/B 3.3 22:21:12 30° SE 22:21:52 30° ESE 22:27:30 10° ENE
Geosat 3.9 22:20:48 42° SSE 22:22:33 86° WSW 22:27:37 10° NNW
Cosmos 1703 Rocket 4.4 22:18:31 10° NNW 22:22:40 43° W 22:24:15 30° SW
Iridium 4 Rocket 2.9 22:21:45 50° S 22:22:50 84° E 22:27:05 10° N
Cosmos 2173 Rocket 3.9 22:21:11 33° S 22:24:12 82° E 22:30:21 10° NNE
Cosmos 1500 3.0 22:25:10 70° S 22:25:34 90° SE 22:29:20 10° N
Cosmos 1980 Rocket 3.9 22:21:28 10° NW 22:25:50 23° WSW 22:28:51 15° SW
Cosmos 405 Rocket 4.1 22:24:29 20° WSW 22:26:26 34° WNW 22:29:53 10° N
SL-4 R/B 1.5 22:23:13 10° WSW 22:27:01 86° SSE 22:27:13 79° E
USA 238 DEB 3.7 22:21:58 10° SW 22:28:40 84° NW 22:35:41 10° NE
USA 238 3.7 22:22:05 10° SW 22:28:46 85° NW 22:35:47 10° NE
ALOS 2 3.5 22:27:44 32° E 22:28:46 36° ENE 22:32:49 10° N
Cosmos 1763 Rocket 4.1 22:24:06 10° NNW 22:29:13 48° WSW 22:31:09 33° SSW
Cosmos 1725 Rocket 4.3 22:27:19 36° SE 22:29:34 54° E 22:35:42 10° NNE
Cosmos 1674 Rocket 4.3 22:28:28 10° N 22:32:32 38° ENE 22:33:13 36° E
Cosmos 1536 3.3 22:34:39 43° E 22:34:39 43° E 22:38:22 10° NNE
Cosmos 1666 2.9 22:37:32 53° E 22:37:32 53° E 22:41:00 10° NNE
Cosmos 2333 Rocket 3.2 22:32:46 10° NNW 22:38:13 40° NE 22:41:18 23° ESE
Cosmos 1271 Rocket 4.1 22:37:18 10° N 22:40:31 26° ENE 22:40:47 25° ENE
Cosmos 1356 4.2 22:41:30 43° ENE 22:41:30 43° ENE 22:44:11 10° NNE
Meteor 1-13 Rocket 4.1 22:36:01 10° NNW 22:41:35 82° W 22:43:23 45° S
Cosmos 2237 Rocket 4.3 22:37:46 10° NNW 22:41:56 20° NE 22:46:03 10° E
Cosmos 2016 Rocket 4.0 22:39:51 39° S 22:42:25 78° E 22:48:49 10° NNE
Meteor 1-5 Rocket 4.3 22:40:38 36° SSW 22:43:16 88° WNW 22:49:15 10° NNE
Lacrosse 4 Rocket 3.5 22:45:23 16° E 22:45:23 16° E 22:46:50 10° ENE
Cosmos 2061 Rocket 3.9 22:41:23 39° S 22:43:49 78° E 22:50:02 10° NNE
Okean 1-7 4.5 22:40:07 10° NNW 22:43:55 30° W 22:45:21 24° SW
MOS 1-B Rocket 3.7 22:38:50 10° NNE 22:44:37 82° ESE 22:46:43 41° S
Cosmos 2221 Rocket 3.5 22:41:13 10° NNW 22:45:42 80° W 22:46:29 60° S
Cosmos 1459 Rocket 4.1 22:42:36 30° SSW 22:45:53 74° WNW 22:52:16 10° N
Okean 3 3.7 22:45:36 10° NNW 22:49:49 59° W 22:50:30 51° SW
FALCON 9 DEB 4.4 22:46:47 10° W 22:48:49 32° W 22:48:49 32° W
Cosmos 1733 Rocket 3.1 22:50:59 57° ESE 22:51:16 58° E 22:55:36 10° NNE
Cosmos 1066 Rocket 4.2 22:46:19 10° N 22:52:06 75° ENE 22:53:46 47° SSE
SL-27 R/B 2.8 22:53:08 56° WNW 22:53:08 56° WNW 22:56:21 10° NNE
Meteor 1-23 Rocket 4.3 22:48:02 10° N 22:53:55 75° ENE 22:55:42 46° SSE
Cosmos 1864 Rocket 4.4 22:53:22 42° S 22:55:38 81° E 23:01:55 10° NNE
Thor Agena Rocket 3.4 22:50:45 10° NNE 22:55:50 74° ESE 22:57:00 53° S
CENTAUR R/B 2.6 22:51:50 17° SW 22:56:47 87° NW 23:04:08 10° NE
Cosmos 44 3.6 22:56:09 10° NW 23:00:54 54° WSW 23:01:33 50° SSW
Cosmos 1802 Rocket 4.2 22:58:41 32° SSW 23:01:47 70° WNW 23:08:10 10° N
Spot 4 4.1 23:06:33 48° SW 23:07:28 57° W 23:12:14 10° NNW
Cosmos 1378 3.3 23:09:00 10° N 23:12:29 65° NE 23:12:29 65° NE
USA 267 3.9 23:08:19 10° ENE 23:14:41 55° N 23:21:02 10° W
Cosmos 2233 Rocket 4.0 23:14:31 46° S 23:16:30 76° E 23:22:51 10° NNE
Cosmos 1842 4.4 23:13:56 10° N 23:17:32 32° ENE 23:17:41 32° ENE
Cosmos 1908 Rocket 4.1 23:18:33 44° E 23:18:33 44° E 23:22:43 10° NNE
Cosmos 841 Rocket 4.5 23:16:28 10° NW 23:21:08 33° WSW 23:22:05 31° SW
Cosmos 540 Rocket 4.4 23:17:41 10° NW 23:22:18 33° WSW 23:23:10 31° WSW
NOSS 3-2 (A) 4.4 23:17:50 10° WSW 23:23:38 48° NNW 23:30:20 10° NE
SL-16 R/B 3.5 23:20:20 10° NW 23:24:56 26° WSW 23:26:08 24° WSW
Lacrosse 5 3.1 23:21:01 10° WNW 23:24:41 27° WSW 23:24:41 27° WSW
Cosmos 2322 3.6 23:22:27 10° NNW 23:28:10 86° WSW 23:29:31 54° SSE
Cosmos 1378 Rocket 3.4 23:24:03 10° NNW 23:28:32 79° W 23:28:49 74° SW
NOSS 3-2 (C) 4.0 23:23:28 10° WSW 23:29:19 60° NW 23:36:08 10° NE
Cosmos 1833 4.1 23:28:45 55° S 23:29:59 75° ESE 23:35:40 10° NNE
COSMOS 2487 3.3 23:32:14 45° NE 23:32:14 45° NE 23:34:46 10° NNE
GENESIS II 4.3 23:30:44 10° NW 23:34:38 75° NNE 23:34:38 75° NNE
Cosmos 2084 Rocket 3.8 23:35:29 45° W 23:36:31 62° NW 23:40:50 10° NE
Cosmos 2219 Rocket 2.2 23:30:59 10° NNW 23:36:43 81° ENE 23:38:19 49° SE
Tsikada Rocket 4.5 23:31:32 10° NNW 23:37:40 51° W 23:39:45 37° SW
EO 1 Del DPAF 4.0 23:36:09 10° N 23:39:44 43° WNW 23:39:56 42° WNW
Cosmos 1975 Rocket 3.5 23:37:31 10° N 23:41:57 53° ENE 23:42:25 50° E
Cosmos 2333 4.2 23:36:46 10° NNW 23:42:33 70° WSW 23:43:44 55° S
Cosmos 1503 Rocket 4.4 23:45:55 45° SE 23:46:28 47° ESE 23:51:36 10° NE
Cosmos 1242 Rocket 4.1 23:43:29 10° NNW 23:46:08 28° WNW 23:46:08 28° WNW
Cosmos 2322 Rocket 3.7 23:42:53 10° NW 23:47:06 22° W 23:48:01 21° WSW
YAOGAN 11 4.1 23:48:26 67° SE 23:48:57 76° ENE 23:53:34 10° NNW
Helios 1A 2.8 23:49:48 88° S 23:49:52 90° WSW 23:54:07 10° NNW
ERBS 3.7 23:47:29 10° NW 23:50:37 37° NNE 23:51:02 35° NE
SL-16 R/B 4.3 23:46:41 10° ESE 23:51:40 26° NE 23:56:38 10° N
SL-16 R/B 4.3 23:47:42 10° NNW 23:52:16 24° NE 23:56:50 10° E
CZ-2D R/B 4.5 23:50:57 10° ENE 23:52:42 11° E 23:54:28 10° ESE
Cosmos 1486 Rocket 3.9 23:52:11 63° SSW 23:53:03 85° ESE 23:58:18 10° NNE
Cosmos 1544 3.5 23:54:38 58° NNE 23:54:38 58° NNE 23:57:43 10° NNE
Sich 1 Rocket 4.4 23:55:31 38° E 23:55:39 38° E 23:59:43 10° NNE
